Temperature
20 19 20 20 19 19 19 19 19 19 19 19 19 19 19 19 19 19 19 19 19 19 19 19 19 19 19 19 19 19 19 19 18 18 17 17 17 17 17 17 16 16 16
20 20 20 19 19 19 19 19 19 19 19 19 19 19 19 19 19 19 19 19 19 19 19 19 19 20 20 20 19 19 19 19 19 18 18 17 17 17 17 17 17 16 16
20 20 20 19 19 19 19 19 19 19 19 19 19 19 19 19 19 19 19 19 19 19 19 19 20 20 20 20 20 19 19 19 19 18 18 18 18 18 17 17 17 17 16
20 19 19 19 20 20 19 19 19 19 19 19 19 19 19 19 19 19 19 19 19 19 19 19 19 19 19 20 19 19 19 19 19 19 18 18 18 18 18 18 17 17 17
20 19 19 19 20 20 20 19 19 19 19 19 19 19 20 19 19 19 19 19 19 19 19 19 19 19 19 19 19 19 19 19 19 19 18 18 18 18 18 18 18 17 17
20 19 19 19 19 19 19 19 19 19 19 19 19 19 19 19 19 19 19 19 19 20 20 20 19 19 20 19 19 19 19 19 19 19 19 18 18 18 18 18 18 18 17
19 19 19 18 18 18 19 19 19 19 19 19 19 19 19 19 19 20 20 20 20 20 20 20 20 19 20 20 19 19 19 19 19 19 19 19 19 18 18 18 18 18 17
19 18 18 18 18 18 18 18 19 19 19 19 18 18 18 18 19 20 21 21 20 20 20 20 20 20 20 19 19 19 19 18 18 19 19 19 19 18 18 18 17 17 17
19 18 18 18 18 17 18 18 18 18 18 18 18 18 17 17 19 20 20 20 20 20 20 19 19 19 19 19 19 19 18 18 18 18 18 18 18 18 18 17 17 17 17
18 18 18 18 17 17 17 17 17 17 17 17 17 17 17 17 17 18 19 19 19 19 19 19 19 19 19 19 19 18 18 18 18 18 18 18 18 18 18 17 17 17 17
17 17 17 17 17 17 17 16 16 16 16 16 16 16 16 16 16 16 17 18 18 18 18 18 18 18 18 18 18 18 18 18 18 18 18 18 18 18 18 17 17 17 16
17 17 16 16 16 16 16 16 15 15 15 15 15 15 15 15 16 16 16 17 17 18 18 18 18 18 17 17 17 17 17 17 17 17 17 17 17 17 17 17 17 17 16
16 16 16 16 15 15 15 15 15 15 14 14 14 15 15 15 15 16 16 16 16 17 17 17 17 17 17 17 17 17 17 17 17 17 17 17 17 17 17 17 17 16 16
16 16 15 15 15 15 15 14 14 14 14 14 14 14 15 15 15 15 16 16 16 17 17 17 17 17 16 16 16 16 16 16 16 16 16 16 16 16 16 16 16 16 16
15 15 15 15 15 14 14 14 14 14 14 14 14 14 15 15 15 15 15 15 16 16 16 16 16 16 16 15 15 15 16 16 16 16 16 16 16 16 16 16 16 16 16
14 14 14 14 14 14 14 14 14 14 14 14 14 14 15 15 15 15 15 15 15 15 15 15 15 15 15 15 15 15 15 16 16 16 15 15 15 15 15 15 15 16 16
13 14 13 14 14 14 14 14 14 14 14 14 14 14 14 14 14 15 15 15 15 15 15 15 15 15 15 15 15 15 15 15 15 15 15 15 14 14 14 15 15 15 15
12 12 13 13 13 13 13 14 14 14 14 14 14 14 14 14 14 14 14 14 14 14 14 14 14 14 14 14 14 14 14 14 14 15 14 14 14 14 14 14 14 15 15
12 12 12 12 13 13 13 13 13 13 13 13 13 13 13 13 13 13 13 14 14 14 14 14 14 14 13 13 13 13 13 14 14 14 13 13 13 13 13 14 14 14 14
11 11 12 12 12 12 13 13 13 13 13 12 12 13 13 13 13 13 13 13 14 14 14 14 14 13 13 13 13 13 13 13 13 13 13 13 13 13 13 13 13 13 14
11 11 11 11 12 12 12 12 12 12 12 12 12 13 12 12 13 13 13 13 13 13 13 13 13 12 12 13 12 12 12 12 13 12 12 12 12 12 12 12 13 13 13
11 11 11 11 12 12 12 12 12 12 12 12 12 12 12 12 12 12 12 13 13 13 13 12 12 12 12 12 12 12 12 12 12 12 12 11 11 11 12 12 12 12 13
11 11 11 12 12 12 12 12 11 12 12 12 12 12 12 12 12 12 12 12 12 12 12 12 12 12 12 12 12 12 12 12 11 11 12 11 11 11 11 11 11 12 12
11 11 12 12 12 12 12 11 11 11 11 11 11 11 12 12 12 12 11 11 12 12 12 12 12 12 11 11 12 12 12 12 11 11 11 11 11 11 11 11 11 11 12
12 12 12 12 12 12 12 12 11 11 11 11 11 11 11 11 11 11 11 11 12 11 12 12 12 12 12 11 11 11 11 11 11 11 11 11 11 11 11 11 11 11 11
12 12 12 12 12 12 12 12 12 11 11 11 11 11 11 11 11 11 11 11 11 12 12 12 12 12 11 11 11 11 11 10 10 10 10 11 11 11 11 11 11 11 11
Wind_Speed
10 9 5 4 6 7 7 7 6 7 7 6 7 7 8 9 11 11 9 18 21 22 21 21 21 21 22 22 22 23 22 21 20 20 21 21 22 22 22 22 21 21 20
7 7 6 6 5 6 6 5 7 6 6 6 7 8 7 8 8 10 10 14 22 24 23 23 23 23 22 22 23 22 22 21 21 20 20 21 21 21 21 21 21 21 21
7 7 6 6 5 6 6 4 5 5 6 7 8 9 8 7 7 8 11 12 15 22 26 26 26 25 24 24 23 23 22 22 21 21 21 21 21 21 21 20 20 21 22
10 7 7 7 5 4 3 3 3 4 4 5 5 5 6 6 8 7 9 12 14 16 20 27 27 26 26 26 25 24 23 23 22 22 22 22 22 21 21 20 20 21 21
11 7 7 6 5 5 4 5 4 3 3 4 5 5 6 8 9 12 11 11 13 15 14 20 29 29 28 27 27 25 24 23 22 22 22 22 22 22 22 21 20 20 21
8 6 7 7 6 6 6 5 5 4 4 5 7 7 6 9 10 11 12 11 9 13 15 15 18 23 28 27 27 27 25 24 23 23 23 23 23 23 23 22 21 21 21
6 7 8 6 7 8 8 7 6 7 6 6 4 4 7 12 13 12 12 11 11 9 9 9 10 14 17 27 28 27 27 26 25 25 25 24 24 24 24 23 23 22 22
7 9 8 8 8 8 8 8 7 7 6 6 5 3 3 7 11 14 10 10 9 7 7 7 7 10 11 13 20 26 27 26 26 25 24 24 24 24 24 24 24 23 23
9 9 10 9 9 9 9 9 9 10 9 7 6 5 4 4 5 6 5 4 4 4 5 5 5 5 9 8 13 22 26 26 27 26 24 23 23 24 24 25 24 24 24
11 10 10 9 9 8 8 9 10 9 9 7 4 5 6 5 4 4 5 4 3 3 4 4 5 5 4 4 7 12 20 23 25 25 24 23 22 23 24 25 25 25 25
10 10 9 8 8 8 8 8 7 7 6 5 4 3 5 6 8 6 6 5 4 4 4 5 4 4 3 2 2 2 9 17 20 21 19 18 17 19 21 23 25 26 27
8 9 9 8 8 7 7 6 6 5 4 3 3 3 3 4 4 5 5 4 5 4 4 2 1 2 2 6 9 11 3 6 9 11 12 12 12 13 14 18 21 24 26
8 8 8 8 7 6 6 4 4 3 3 3 3 3 4 5 4 4 4 3 4 3 2 0 1 2 3 4 6 6 2 3 6 8 9 10 9 9 10 11 13 17 20
7 7 8 8 8 7 6 5 4 4 4 4 5 5 4 4 3 4 2 2 3 2 1 1 2 4 3 3 4 4 3 2 5 7 7 8 8 9 9 10 10 12 13
5 5 6 7 7 7 6 5 4 6 5 5 6 6 4 3 2 1 1 1 1 2 3 4 4 4 3 2 2 3 2 2 5 6 7 7 7 8 9 9 11 12 14
5 3 1 2 3 4 4 4 5 6 6 5 5 4 2 1 0 1 1 1 0 1 2 3 4 5 5 5 3 5 3 4 7 8 8 8 8 8 8 9 11 13 15
9 7 5 3 2 3 4 5 6 6 7 6 5 6 6 5 4 4 3 3 2 2 2 3 3 3 4 5 5 5 5 3 5 9 10 9 8 7 7 8 11 13 15
8 8 6 4 1 2 3 4 6 7 7 8 7 7 7 6 6 5 4 5 4 3 3 3 3 3 4 4 5 6 5 5 3 5 9 8 7 7 7 9 11 12 15
7 7 7 5 3 4 5 6 7 8 9 9 8 9 9 8 7 6 6 6 5 4 2 2 3 3 4 5 5 5 6 6 6 4 3 5 5 6 8 9 11 12 14
4 4 4 4 5 6 6 8 9 10 10 11 11 10 9 8 6 7 8 8 7 6 5 4 6 6 7 8 7 6 5 6 6 7 6 4 2 4 7 9 10 11 13
1 2 4 4 5 7 7 8 9 11 10 10 9 9 9 9 10 8 8 7 8 8 7 7 7 7 7 8 8 6 5 4 3 5 5 5 4 4 5 7 8 10 12
1 2 3 5 8 8 13 14 10 8 8 8 7 7 9 9 7 8 9 10 10 9 7 7 6 6 7 6 7 7 5 5 3 4 3 4 5 5 6 5 9 10 11
3 4 7 8 8 9 14 14 12 8 9 9 9 9 10 11 11 7 2 3 6 10 9 7 6 5 5 6 7 8 6 4 3 3 2 3 4 5 5 7 11 10 11
4 5 8 8 7 8 12 14 11 8 7 8 9 9 9 9 12 11 9 9 7 7 6 5 3 4 4 5 6 7 6 3 2 3 3 3 3 2 4 4 12 12 11
5 5 7 7 7 5 9 12 11 4 6 9 10 10 9 8 13 15 9 8 8 7 4 4 5 7 7 7 6 7 9 7 5 4 6 4 3 2 2 4 6 11 12
5 5 7 7 7 5 6 10 10 3 4 7 8 9 11 9 10 12 7 7 7 7 9 9 4 2 4 6 7 7 7 7 6 5 7 7 5 4 3 1 3 4 5
Wind_Direction
214 227 218 201 212 222 205 210 215 216 222 237 242 243 240 239 240 239 224 200 202 208 214 219 223 227 231 233 233 234 235 234 234 230 226 224 225 227 228 229 229 229 226
212 213 207 201 209 230 249 208 212 219 224 230 244 251 250 250 242 234 237 219 214 215 218 222 225 227 229 231 231 231 231 231 229 224 223 223 223 224 225 226 227 228 227
213 213 217 212 213 220 230 228 227 226 231 233 235 245 250 242 245 235 233 239 233 225 223 223 224 225 227 229 231 230 229 228 223 219 220 223 223 224 224 223 223 224 224
214 216 220 219 207 199 204 214 227 244 257 260 256 257 266 262 248 240 238 236 239 242 229 225 225 224 226 228 231 231 228 226 222 218 218 219 221 223 223 222 221 221 220
215 216 230 230 220 216 209 220 209 213 248 267 273 262 255 259 260 255 246 242 238 234 232 220 220 221 224 227 228 229 228 226 222 219 218 218 218 219 221 220 218 219 219
223 217 229 231 237 243 228 215 218 220 226 235 259 272 286 274 258 248 245 246 243 240 237 229 216 222 223 224 225 225 226 226 223 219 218 218 218 218 219 218 217 217 218
248 231 246 240 228 240 240 225 217 225 226 222 234 264 273 272 261 250 240 238 240 238 238 232 209 214 218 223 224 223 223 226 224 220 218 217 217 217 217 217 216 216 216
255 248 238 248 244 244 244 234 225 227 227 214 204 223 261 270 264 256 234 223 230 236 245 250 228 213 213 207 218 222 224 226 227 224 221 219 218 217 217 218 216 216 216
240 241 245 246 248 246 246 236 228 229 231 222 207 206 227 238 296 302 300 259 231 229 243 259 265 246 228 205 197 211 221 226 228 227 224 221 219 218 218 218 219 218 217
240 239 241 241 242 243 244 243 234 229 230 231 227 222 239 265 272 296 301 315 345 331 307 303 303 303 268 230 217 201 212 227 232 232 231 228 224 221 220 220 221 221 219
244 240 236 236 240 241 242 242 239 223 218 221 226 240 243 251 245 251 276 299 325 313 294 279 279 305 314 295 291 357 214 225 228 231 231 233 232 229 225 224 225 226 224
249 234 226 228 233 233 235 235 224 204 190 213 240 253 258 251 244 239 257 285 290 285 284 285 275 325 356 52 61 43 16 248 241 242 240 239 240 240 236 232 231 231 230
259 236 223 217 217 215 212 200 195 184 181 204 231 254 261 259 261 248 245 264 278 285 291 270 153 60 52 64 71 37 353 246 243 245 246 245 244 245 246 246 245 244 242
267 248 225 216 211 207 203 192 191 195 195 209 230 234 241 249 253 244 246 282 299 304 308 336 84 85 54 58 63 359 353 224 229 229 233 238 243 247 251 254 257 259 260
287 262 227 214 209 203 200 189 200 205 198 200 212 219 218 219 233 266 291 293 320 346 9 30 27 51 31 45 62 320 311 218 214 223 229 238 246 254 260 263 264 262 261
353 354 264 195 185 182 180 182 198 194 175 178 187 174 147 121 84 268 255 230 94 33 10 24 28 21 18 358 14 327 306 217 222 231 239 243 250 258 266 271 271 269 265
20 25 23 51 124 155 170 176 175 164 155 153 147 124 102 66 41 26 4 25 43 46 23 31 40 30 26 356 338 326 305 247 229 225 233 240 250 264 275 281 281 280 276
16 13 11 354 309 140 144 131 123 119 113 104 94 89 84 74 58 34 9 27 36 51 49 49 32 26 28 357 350 340 343 340 316 230 224 238 256 275 286 290 291 291 288
7 1 352 346 27 68 79 84 83 85 84 83 81 75 66 56 40 18 34 31 28 26 37 75 73 44 31 8 4 0 14 5 353 353 231 238 264 291 297 299 300 301 299
350 350 356 21 52 65 72 78 79 78 78 73 69 67 63 57 38 22 47 29 22 18 31 47 54 44 25 6 8 358 15 18 16 11 9 14 352 333 323 317 314 313 313
3 32 63 61 59 57 61 77 92 91 87 88 87 84 76 71 61 54 62 42 37 36 31 36 44 39 21 8 3 349 359 357 40 23 8 11 0 0 353 350 349 343 333
152 135 110 83 72 65 49 54 79 84 85 84 89 102 91 60 57 70 78 66 58 52 34 34 39 30 21 5 349 342 344 353 5 13 1 4 1 9 10 11 7 6 357
133 104 93 88 80 57 50 48 63 81 75 68 59 54 62 43 28 9 72 123 78 64 56 59 41 15 12 356 346 344 352 13 9 348 337 356 360 8 13 18 16 23 24
107 100 100 99 94 69 49 41 43 88 85 79 70 72 66 42 22 8 29 33 37 40 33 46 29 351 358 341 339 341 353 24 38 21 354 351 357 355 352 10 19 28 38
129 123 117 113 103 80 52 41 27 82 92 79 69 61 68 52 23 21 28 25 18 8 347 298 283 297 314 329 344 1 5 11 8 21 8 355 340 319 345 5 13 29 41
156 146 132 130 129 115 68 48 26 360 118 117 107 85 68 62 39 27 23 21 12 344 331 328 324 331 22 48 47 40 19 8 6 8 0 350 348 343 337 345 1 7 30
Height
1530 1531 1532 1533 1533 1534 1533 1533 1533 1534 1534 1535 1537 1538 1538 1538 1538 1538 1538 1536 1536 1536 1535 1534 1534 1534 1534 1534 1534 1535 1536 1537 1539 1540 1542 1543 1544 1545 1547 1548 1549 1551 1552
1526 1527 1528 1528 1528 1529 1530 1530 1529 1530 1530 1531 1532 1533 1533 1534 1534 1534 1534 1533 1532 1531 1530 1530 1529 1529 1529 1530 1530 1530 1531 1532 1534 1535 1537 1538 1540 1541 1542 1544 1545 1547 1548
1520 1521 1521 1522 1522 1523 1524 1525 1525 1525 1525 1525 1526 1527 1528 1529 1530 1530 1529 1528 1528 1526 1526 1525 1525 1524 1525 1525 1525 1526 1526 1527 1528 1530 1532 1534 1536 1537 1538 1539 1540 1542 1544
1516 1516 1516 1516 1516 1516 1517 1518 1519 1520 1520 1521 1521 1521 1522 1524 1524 1525 1524 1523 1522 1521 1521 1520 1520 1520 1520 1520 1521 1521 1522 1522 1524 1525 1527 1529 1531 1532 1534 1535 1536 1537 1539
1511 1511 1511 1511 1512 1511 1511 1512 1513 1514 1515 1516 1516 1516 1516 1517 1518 1519 1518 1517 1517 1516 1515 1515 1515 1514 1515 1515 1516 1516 1517 1518 1519 1520 1522 1524 1525 1527 1529 1530 1532 1533 1535
1507 1507 1507 1508 1508 1508 1507 1507 1507 1508 1510 1511 1511 1510 1510 1511 1512 1512 1512 1511 1511 1510 1510 1509 1508 1508 1509 1509 1510 1511 1512 1513 1514 1515 1517 1518 1520 1522 1523 1525 1527 1529 1530
1502 1502 1502 1503 1502 1503 1502 1502 1501 1502 1503 1505 1506 1504 1503 1505 1506 1506 1505 1504 1504 1504 1504 1504 1502 1501 1502 1503 1504 1505 1507 1508 1509 1511 1512 1513 1515 1516 1518 1520 1522 1523 1525
1496 1496 1496 1496 1496 1496 1496 1495 1495 1496 1496 1498 1499 1498 1498 1500 1500 1500 1498 1497 1498 1498 1498 1498 1498 1497 1496 1497 1497 1499 1501 1503 1504 1506 1507 1508 1510 1511 1513 1514 1516 1518 1520
1488 1489 1489 1489 1489 1489 1488 1488 1488 1489 1489 1490 1491 1493 1493 1493 1495 1493 1492 1493 1493 1493 1493 1493 1493 1492 1492 1491 1491 1492 1495 1496 1498 1500 1502 1503 1505 1506 1508 1509 1511 1512 1514
1481 1480 1480 1480 1480 1480 1480 1480 1479 1480 1481 1482 1483 1484 1486 1489 1492 1490 1489 1489 1487 1487 1486 1487 1487 1487 1487 1486 1485 1486 1488 1490 1492 1494 1496 1498 1500 1501 1502 1503 1505 1507 1508
1472 1472 1472 1472 1472 1471 1471 1472 1472 1472 1473 1474 1476 1478 1480 1484 1486 1487 1485 1484 1483 1482 1481 1481 1481 1482 1482 1481 1481 1480 1482 1485 1487 1489 1491 1492 1494 1495 1496 1497 1498 1500 1502
1464 1464 1464 1464 1464 1464 1464 1464 1465 1465 1466 1467 1469 1471 1475 1479 1480 1481 1481 1479 1478 1477 1476 1476 1476 1477 1477 1477 1476 1476 1477 1479 1481 1483 1485 1486 1487 1488 1489 1490 1492 1493 1495
1457 1456 1457 1457 1457 1457 1457 1458 1459 1459 1460 1462 1465 1468 1472 1475 1477 1477 1477 1475 1474 1474 1473 1473 1473 1474 1474 1474 1473 1474 1474 1475 1476 1477 1479 1480 1481 1481 1482 1483 1484 1486 1488
1450 1450 1450 1451 1451 1452 1453 1453 1454 1456 1457 1459 1462 1466 1470 1472 1473 1473 1474 1473 1473 1473 1472 1473 1473 1473 1473 1472 1471 1471 1471 1470 1470 1471 1472 1473 1473 1474 1475 1476 1477 1478 1480
1444 1444 1444 1445 1447 1448 1449 1450 1452 1454 1456 1458 1461 1465 1467 1469 1470 1471 1471 1472 1472 1472 1472 1473 1473 1472 1471 1471 1470 1469 1467 1466 1466 1466 1466 1467 1467 1467 1468 1468 1469 1471 1472
1441 1440 1440 1442 1443 1444 1446 1448 1450 1452 1455 1457 1460 1463 1465 1467 1468 1470 1470 1471 1471 1471 1471 1472 1471 1470 1470 1469 1468 1466 1464 1463 1462 1462 1462 1462 1462 1462 1462 1462 1462 1463 1464
1440 1439 1439 1440 1441 1443 1445 1447 1449 1451 1454 1456 1459 1462 1464 1465 1467 1468 1469 1469 1469 1469 1470 1470 1470 1469 1468 1467 1465 1463 1462 1460 1459 1459 1459 1459 1458 1457 1457 1456 1456 1456 1456
1441 1441 1440 1441 1442 1444 1446 1448 1450 1452 1454 1456 1459 1461 1463 1465 1466 1467 1468 1468 1468 1468 1468 1469 1469 1468 1467 1466 1463 1462 1460 1458 1456 1456 1455 1455 1454 1453 1452 1451 1450 1449 1449
1444 1443 1442 1443 1443 1445 1447 1449 1451 1453 1456 1458 1460 1461 1463 1465 1466 1467 1467 1467 1467 1468 1469 1469 1469 1469 1467 1466 1464 1461 1459 1456 1454 1453 1452 1451 1450 1448 1447 1445 1443 1443 1442
1446 1446 1445 1445 1446 1447 1450 1451 1453 1455 1457 1459 1461 1463 1464 1466 1467 1467 1467 1467 1468 1468 1469 1469 1469 1468 1467 1465 1463 1461 1458 1456 1454 1451 1449 1447 1446 1444 1442 1440 1438 1437 1436
1449 1449 1448 1449 1450 1451 1453 1455 1457 1458 1460 1462 1464 1466 1467 1468 1469 1469 1469 1469 1469 1468 1469 1469 1469 1468 1467 1464 1463 1461 1460 1458 1454 1451 1448 1445 1443 1440 1439 1437 1434 1433 1431
1452 1452 1453 1453 1454 1456 1458 1459 1460 1462 1464 1466 1467 1469 1470 1471 1471 1471 1471 1471 1471 1471 1470 1470 1470 1470 1468 1467 1464 1462 1461 1458 1455 1453 1449 1445 1442 1439 1437 1435 1432 1430 1428
1455 1456 1456 1457 1458 1460 1462 1463 1464 1465 1466 1468 1470 1471 1472 1472 1473 1473 1473 1473 1473 1473 1473 1473 1472 1471 1470 1468 1466 1463 1461 1459 1456 1453 1450 1446 1443 1440 1437 1434 1432 1429 1428
1457 1458 1458 1459 1460 1462 1464 1466 1467 1468 1470 1471 1472 1472 1473 1474 1474 1475 1474 1474 1474 1474 1474 1474 1474 1473 1472 1470 1467 1466 1463 1460 1457 1455 1451 1448 1445 1442 1439 1435 1432 1430 1428
1458 1459 1460 1461 1462 1464 1466 1468 1469 1471 1472 1472 1473 1474 1475 1476 1476 1476 1476 1475 1475 1475 1475 1475 1474 1473 1472 1470 1468 1466 1463 1460 1459 1457 1454 1451 1448 1444 1441 1438 1435 1432 1429
1458 1460 1461 1463 1464 1466 1468 1469 1471 1472 1473 1474 1475 1475 1476 1477 1477 1477 1476 1476 1476 1476 1475 1475 1475 1474 1473 1471 1469 1467 1464 1462 1460 1458 1456 1453 1450 1447 1444 1441 1438 1435 1432